Location: Northwest Suburban Astronomers
(42.1100°N, 88.0300°W)
Time: 00:03:48
(UTC-05:00)

Daily predictions for brighter satellites

Satellite Brightness Start Highest point End
(mag) Time Altitude Azimuth Time Altitude Azimuth Time Altitude Azimuth
Meteor 2-3 Rocket 4.3 00:05:45 39° ESE 00:06:39 41° E 00:12:00 10° NNE
COS B Rocket 3.5 00:06:34 10° N 00:09:45 62° NW 00:09:45 62° NW
ASTEX 1 3.9 00:06:40 10° NNE 00:11:22 45° E 00:11:38 44° ESE
H-2A R/B 4.2 00:12:25 12° WSW 00:14:36 15° W 00:17:43 10° NW
Cosmos 2237 Rocket 2.5 00:13:12 10° NNW 00:18:44 53° WSW 00:19:39 48° SW
Cosmos 2082 4.1 00:18:01 34° SW 00:20:25 59° WNW 00:26:06 10° NNE
ATLAS 2AS CENTAUR R/B 2.9 00:16:57 34° SSW 00:20:44 88° ESE 00:28:53 10° NE
ALOS 2 2.4 00:23:07 88° S 00:23:10 90° W 00:27:34 10° NNW
Cosmos 1892 4.3 00:25:17 25° ENE 00:25:17 25° ENE 00:27:44 10° NNE
Cosmos 1869 Rocket 3.6 00:24:28 73° WSW 00:24:39 74° W 00:29:08 10° N
Cosmos 389 Rocket 3.3 00:21:23 10° N 00:24:13 50° NNE 00:24:13 50° NNE
Cosmos 1733 Rocket 4.2 00:29:42 33° E 00:29:42 33° E 00:33:30 10° NNE
Cosmos 1269 Rocket 3.9 00:24:26 10° NNW 00:29:45 72° WSW 00:30:21 64° SSW
Geosat 3.9 00:29:14 10° NNE 00:34:17 72° ESE 00:34:39 68° SSE
Cosmos 1340 Rocket 4.0 00:37:51 33° ENE 00:37:51 33° ENE 00:40:45 10° NNE
Cosmos 2074 Rocket 3.9 00:41:14 54° S 00:42:50 89° W 00:49:11 10° N
In-Cosmos 22 Rocket 4.1 00:43:30 61° SSW 00:44:32 86° W 00:50:19 10° N
CZ-4C R/B 4.3 00:39:01 10° NNW 00:45:11 33° NE 00:51:55 10° ESE
USA 238 DEB 4.3 00:38:50 10° NNW 00:45:44 54° NE 00:50:17 22° ESE
USA 238 4.3 00:38:57 10° NNW 00:45:50 54° NE 00:50:25 22° ESE
Lacrosse 4 Rocket 1.5 00:41:39 10° NNW 00:45:57 84° N 00:45:57 84° N
ATLAS 3B R/B 2.5 00:39:29 10° NW 00:46:31 81° WSW 00:48:24 51° SSE
CZ-4B R/B 2.9 00:51:18 34° NW 00:51:18 34° NW 00:53:40 10° NNW
TSX-5 4.5 00:50:04 65° SSE 00:50:33 69° ESE 00:56:53 10° NNE
Landsat 5 3.8 00:50:52 60° W 00:50:52 60° W 00:55:12 10° NNW
NOSS 2-3 (E) 3.8 00:55:10 73° SSE 00:55:33 78° ESE 01:01:12 10° NE
H-2A R/B 3.4 00:53:19 10° N 00:57:13 40° WNW 00:57:31 39° W
Cosmos 1825 4.5 00:58:09 15° E 00:58:09 15° E 01:00:07 10° NE
Cosmos 2227 Rocket 3.7 00:54:43 16° WSW 00:58:14 30° NW 01:03:11 10° N
Cosmos 1356 Rocket 4.1 01:00:18 44° ENE 01:00:18 44° ENE 01:03:39 10° NNE
Aureole 2 Rocket 4.0 00:57:40 10° NNW 00:59:28 32° N 00:59:28 32° N
Cosmos 2333 Rocket 3.8 00:56:38 10° NW 01:00:47 21° W 01:01:13 21° WSW
Cosmos 1125 Rocket 4.4 00:59:16 33° WSW 01:00:56 42° WNW 01:05:59 10° N
Cosmos 1048 Rocket 4.5 00:57:51 10° NNW 01:02:57 45° WSW 01:03:14 45° WSW
Okean 1-7 4.2 01:02:19 10° NNW 01:05:48 30° W 01:05:48 30° W
Cosmos 2154 Rocket 4.1 01:05:34 51° SSE 01:07:08 70° E 01:13:25 10° NNE
Cosmos 494 Rocket 4.5 01:03:21 10° N 01:08:31 54° ENE 01:09:55 41° ESE
Cosmos 2227 4.1 01:08:04 61° SSE 01:08:49 69° ESE 01:14:28 10° NNE
SL-16 R/B 2.6 01:03:41 10° NW 01:09:05 46° WSW 01:09:30 45° WSW
Cosmos 2263 Rocket 4.0 01:08:18 17° ESE 01:09:08 18° E 01:12:49 10° ENE
BREEZE-M DEB (TANK) 4.4 01:08:02 25° W 01:10:45 70° NNW 01:25:22 10° ENE
USA 234 3.9 01:07:43 10° ESE 01:14:02 54° NNE 01:20:23 10° NW
Cosmos 44 4.1 01:17:14 41° ESE 01:17:22 42° ESE 01:22:28 10° NE
Cosmos 1674 Rocket 3.5 01:12:59 10° N 01:17:23 87° NE 01:17:23 87° NE
COSMOS 2455 3.4 01:15:39 10° NW 01:21:14 40° WSW 01:21:35 40° WSW
NOSS 2-3 (C) 4.2 01:21:32 50° WSW 01:22:44 67° NW 01:28:29 10° NNE
Cosmos 1975 Rocket 4.2 01:21:17 10° N 01:25:18 33° ENE 01:26:06 31° E
Cosmos 2297 Rocket 3.9 01:22:46 15° W 01:26:09 26° NW 01:30:50 10° N
Cosmos 1607 4.2 01:22:13 10° NNW 01:28:20 63° NE 01:31:45 27° SE
Meteor 2-6 Rocket 4.2 01:22:36 10° N 01:28:25 87° W 01:29:46 56° S
Cosmos 1932 4.4 01:24:36 10° NW 01:31:01 81° WSW 01:33:02 47° SSE
Cosmos 1908 Rocket 3.5 01:31:58 71° E 01:31:58 71° E 01:36:18 10° NNE
Helios 1A Rocket 4.2 01:29:21 10° N 01:33:01 30° WNW 01:33:21 30° W
Cosmos 2341 Rocket 4.0 01:32:24 51° S 01:34:12 89° E 01:40:38 10° N
Uosat 12 SS-18 rocket 4.2 01:34:12 71° SW 01:34:43 86° WNW 01:39:15 10° NNE
Cosmos 1943 3.9 01:30:20 10° NNW 01:35:52 50° ENE 01:38:54 25° ESE
CZ-2C R/B 3.2 01:36:35 55° S 01:37:53 78° WSW 01:43:38 10° NNW
Cosmos 44 Rocket 3.8 01:37:34 46° WSW 01:38:50 60° NW 01:44:03 10° NNE
Cosmos 921 Rocket 2.9 01:39:19 79° ENE 01:39:19 79° ENE 01:43:22 10° NNE
CZ-2C R/B 3.0 01:36:08 10° N 01:41:14 52° WNW 01:42:21 44° WSW
Cosmos 1606 2.9 01:37:57 10° N 01:41:25 71° N 01:41:25 71° N
NOSS 3-4 (A) 4.2 01:40:58 36° SE 01:42:20 40° ESE 01:48:21 10° NE
MOS 1-B Rocket 4.3 01:41:28 41° WSW 01:42:20 44° W 01:47:43 10° NNW
NOSS 3-4 (C) 4.2 01:41:04 36° SE 01:42:25 40° ESE 01:48:26 10° NE
Cosmos 1603 3.7 01:36:51 10° NNW 01:42:29 64° WSW 01:43:23 56° SSW
Sich 1 Rocket 3.6 01:43:04 65° W 01:43:14 65° W 01:47:44 10° N
NOSS 3-2 (A) 4.4 01:37:52 10° NNW 01:45:11 59° NE 01:53:03 10° SE
Meteor 2-10 Rocket 4.5 01:47:19 10° NNW 01:52:19 36° W 01:53:05 34° WSW
Cosmos 2084 Rocket 3.3 01:53:22 68° NNW 01:53:22 68° NNW 01:57:00 10° NNE
PSLV R/B 4.3 01:54:48 51° WNW 01:54:48 51° WNW 01:58:25 10° NNW
Cosmos 2251 Rocket 4.2 01:54:49 10° NW 01:59:40 36° WSW 01:59:50 36° WSW
SL-8 Rocket 4.0 01:59:57 45° S 02:02:05 87° E 02:08:27 10° N
Cosmos 2218 Rocket 4.0 02:01:44 42° S 02:03:58 75° E 02:10:17 10° N
Cosmos 1238 Rocket 3.4 01:59:57 10° NNW 02:03:42 43° WNW 02:03:42 43° WNW
Cosmos 1782 4.3 02:01:51 10° NNW 02:04:38 26° WNW 02:04:38 26° WNW
Coronas F rocket 4.4 02:06:47 11° NW 02:06:47 11° NW 02:07:06 10° NW
Cosmos 1867 4.5 02:04:24 10° NNW 02:09:43 48° NE 02:14:58 10° SE
BREEZE-M DEB (TANK) 3.8 02:01:24 10° WNW 02:13:10 77° SSW 02:16:13 17° SE
Cosmos 1242 Rocket 3.9 02:10:18 10° N 02:13:29 32° ENE 02:14:10 29° E
RESURS DK-1 3.5 02:15:39 31° ESE 02:16:04 32° ESE 02:19:48 10° NE
ATLAS 2A CENTAUR R/B 4.1 02:19:13 25° SSE 02:19:41 25° SSE 02:32:18 10° ESE
Cosmos 1378 Rocket 4.3 02:17:11 10° NNW 02:21:14 37° W 02:21:16 37° W
Tiangong 1 3.0 02:24:45 22° E 02:24:45 22° E 02:25:59 10° E
Cosmos 2366 rocket 3.9 02:20:55 41° S 02:23:18 89° WNW 02:29:30 10° N
NPP 4.1 02:18:31 10° NNE 02:23:48 53° E 02:25:55 34° SSE
Okean 2 Rocket 3.3 02:26:55 50° WSW 02:27:39 57° W 02:32:08 10° N
Cosmos 1624 Rocket 4.5 02:28:03 35° SSE 02:29:51 52° ESE 02:34:55 10° NNE
Okean 3 4.2 02:27:59 10° NNW 02:31:58 37° W 02:32:05 37° W
CRYOSAT 2 4.3 02:27:09 10° N 02:32:01 83° W 02:33:25 47° SSW
Cosmos 1825 3.2 02:33:05 32° WNW 02:33:08 32° WNW 02:36:36 10° NNW
CZ-4C R/B 2.8 02:27:12 10° NW 02:34:19 70° WSW 02:40:36 17° SSE
ATLAS 3B R/B 4.4 02:32:51 10° WNW 02:35:37 14° W 02:35:37 14° W
ERS-2 2.7 02:32:26 10° NNE 02:36:04 49° E 02:36:43 43° SE
USA 238 DEB 4.4 02:30:16 10° NW 02:36:25 34° WSW 02:37:40 32° SW
USA 238 4.4 02:30:21 10° NW 02:36:31 34° WSW 02:37:48 32° SW
ADEOS 4.5 02:32:37 10° NNE 02:37:33 40° E 02:40:14 24° SSE
Meteor 2-19 Rocket 4.5 02:36:44 33° S 02:39:41 80° E 02:45:53 10° N
Cosmos 1782 Rocket 4.4 02:39:31 32° W 02:40:11 34° WNW 02:44:12 10° N
Cosmos 1727 Rocket 3.9 02:36:21 10° NNW 02:42:34 72° W 02:45:30 33° S
Cosmos 1408 4.2 02:46:26 23° W 02:46:38 23° WNW 02:49:41 10° NNW
Meteor 1-14 Rocket 4.3 02:46:51 35° SSW 02:49:30 75° W 02:55:27 10° N
ARIANE 5 R/B 3.9 02:45:45 10° NE 02:50:08 30° E 02:53:31 15° SSE
PSLV R/B 4.3 02:46:20 10° N 02:50:16 38° WNW 02:51:14 33° WSW
CZ-2D R/B 4.0 02:46:48 10° NE 02:51:12 25° E 02:55:36 10° SSE
COSMOS 2406 4.0 02:45:38 10° NNW 02:51:17 52° ENE 02:56:53 10° SE
Cosmos 1844 Rocket 4.2 02:48:04 15° SSE 02:51:37 27° ESE 02:56:19 10° NE
Meteor 2-8 Rocket 4.4 02:45:51 10° NNW 02:51:54 69° W 02:54:58 30° S
Cosmos 1184 Rocket 3.3 02:51:54 46° W 02:51:59 46° WNW 02:55:16 10° N
Cosmos 2263 Rocket 2.3 02:50:00 34° SW 02:52:27 66° WNW 02:58:08 10° NNE
Iridium 4 Rocket 3.3 02:49:15 10° N 02:53:46 68° W 02:55:32 38° SSW
OTV 4 3.0 02:57:04 13° ESE 02:57:04 13° ESE 02:57:27 10° ESE
USA 234 3.4 02:51:13 12° SSE 02:57:04 49° SW 03:03:22 10° WNW
CBERS-1 4.0 02:52:26 10° NNE 02:57:36 90° ESE 03:00:00 33° SSW
USA 161 3.0 02:56:54 24° ESE 02:57:55 33° ENE 03:00:33 10° N
H-2A R/B 4.2 02:56:59 24° S 02:58:12 25° S 03:14:22 10° SE
Abrixas rocket 2.7 03:01:03 45° SSE 03:01:06 45° SE 03:04:19 10° ENE
Cosmos 2278 Rocket 4.4 03:02:01 10° SE 03:05:35 17° E 03:09:10 10° ENE
Cosmos 1300 Rocket 3.7 03:07:39 29° S 03:09:47 70° E 03:14:07 10° NNE
NOSS 3-2 (C) 4.0 03:03:10 10° NW 03:10:34 59° WSW 03:18:26 10° SSE
IRS-1C 4.1 03:07:00 10° NNE 03:12:22 83° WNW 03:15:22 27° SSW
Cosmos 1536 Rocket 3.9 03:10:46 10° NNW 03:14:58 47° W 03:16:31 33° SW
CENTAUR R/B 3.8 03:08:32 10° NNW 03:16:08 56° NE 03:24:14 10° SE
Meteor 1-18 Rocket 4.3 03:13:31 10° NNW 03:19:03 60° W 03:22:39 22° SSW
Cosmos 1943 4.3 03:15:07 10° NW 03:19:33 24° WSW 03:20:39 22° WSW
Cosmos 1190 Rocket 3.9 03:15:00 10° NNW 03:20:14 72° WSW 03:24:31 15° S
Cosmos 1934 Rocket 4.3 03:16:09 15° S 03:21:18 66° E 03:27:26 10° NNE
SL-16 R/B 2.9 03:15:14 10° SSE 03:21:24 66° ENE 03:27:34 10° N
Gbstr 26 Del rocket 4.3 03:20:43 20° SSE 03:21:58 23° SE 03:25:00 10° E
Cosmos 2056 Rocket 3.8 03:23:52 25° SW 03:26:46 54° WNW 03:31:56 10° N
Okean 1-7 Rocket 3.6 03:23:32 10° N 03:28:08 88° WSW 03:31:45 16° S
Spot 4 Rocket 4.0 03:23:33 10° NNE 03:28:43 81° WNW 03:32:06 22° SSW
Cosmos 1000 Rocket 4.4 03:24:16 10° NNW 03:30:23 69° W 03:35:26 15° S
NOSS 3-4 (A) 4.4 03:28:23 16° WSW 03:33:12 43° NW 03:39:29 10° NNE
NOSS 3-4 (C) 4.3 03:28:29 16° WSW 03:33:17 43° NW 03:39:34 10° NNE
OAO 2 Rocket 4.4 03:34:02 24° SSW 03:34:33 24° SSW 03:38:37 10° SSE
SL-08 R/B 4.4 03:35:46 23° SW 03:37:42 29° W 03:42:01 10° NW
Cosmos 407 Rocket 3.5 03:33:55 10° NNW 03:38:59 61° WSW 03:44:05 10° S
Okean O Rocket 3.5 03:37:10 10° NE 03:40:49 25° E 03:44:25 10° SSE
Cosmos 676 Rocket 3.9 03:38:02 10° NNW 03:43:13 75° WSW 03:48:22 10° SSE
Okean 1 Rocket 3.3 03:42:19 22° SSW 03:44:56 54° W 03:49:20 10° N
Meteor 1-11 Rocket 4.0 03:39:52 13° S 03:45:09 80° E 03:51:09 10° NNE
SL-27 R/B 2.5 03:42:04 10° NNW 03:45:40 60° WSW 03:48:44 14° S
Resurs 1-4 Rocket 2.2 03:41:05 10° NNE 03:46:25 76° ESE 03:51:14 13° S
EO 1 Del DPAF 3.2 03:44:05 11° S 03:47:48 79° WSW 03:51:43 10° NNW
Cosmos 1605 Rocket 4.1 03:43:15 10° S 03:49:22 77° E 03:55:36 10° N
IRS-1D 3.5 03:44:53 10° NNE 03:50:02 81° WNW 03:54:11 15° SSW
GP-B 4.0 03:46:19 10° NNW 03:50:18 32° W 03:52:45 19° SW
Okean 1 4.0 03:47:03 10° NNW 03:50:43 35° W 03:52:52 20° SW
Cosmos 1821 Rocket 4.2 03:45:48 17° SSW 03:50:51 63° W 03:57:13 10° N
Meteor 1-13 Rocket 4.2 03:45:46 10° NNW 03:51:24 73° W 03:57:08 10° S
Cosmos 2123 Rocket 4.0 03:45:13 10° N 03:51:36 85° W 03:57:55 10° S
RESURS DK-1 4.0 03:51:35 14° WSW 03:54:11 24° NW 03:57:36 10° N
NOSS 2-2 (C) 4.3 03:53:24 14° S 03:56:38 46° ESE 04:01:07 10° NE
Cosmos 1400 Rocket 3.6 03:54:41 10° S 03:58:25 47° E 04:02:10 10° NNE
Tiangong 1 1.4 03:56:53 13° W 03:59:24 39° SSW 04:02:18 10° SE
UNK 3.7 03:55:21 10° S 03:59:55 65° WSW 04:04:33 10° NNW
Cosmos 1812 4.1 03:57:32 10° NW 04:00:38 23° W 04:02:23 17° SW
Cosmos 1633 2.6 04:01:29 11° S 04:04:53 79° E 04:08:31 10° N
SME Rocket 2.8 04:01:43 10° S 04:05:28 64° WSW 04:09:23 10° NNW
Meteor 2-15 Rocket 4.4 04:02:21 10° N 04:08:31 78° W 04:14:39 10° S
CZ-2D R/B 3.6 04:05:22 10° NNE 04:09:20 68° ESE 04:13:20 10° S
ERS-2 4.5 04:07:52 10° NW 04:09:26 12° WNW 04:10:59 10° W
Cosmos 1954 Rocket 4.1 04:07:36 10° NNW 04:12:37 52° WSW 04:17:36 10° S
Cosmos 1455 Rocket 3.7 04:08:41 10° S 04:13:02 57° E 04:17:25 10° NNE
Okean 2 3.7 04:10:24 10° N 04:14:30 68° E 04:18:34 10° SSE
BREEZE-M DEB (TANK) 3.6 04:12:59 11° SSW 04:14:58 19° SE 04:17:13 10° E
Meteor 1-23 Rocket 4.3 04:12:26 10° N 04:18:12 86° W 04:23:52 10° S
Cosmos 1315 Rocket 3.6 04:17:25 10° S 04:21:24 53° E 04:25:23 10° NNE
CZ-4C R/B 4.4 04:18:32 10° WNW 04:21:59 14° WSW 04:25:33 10° SW
Cosmos 1356 3.4 04:19:30 10° S 04:23:03 85° W 04:26:38 10° N
NOSS 2-2 (E) 3.6 04:19:17 12° SW 04:23:11 89° WNW 04:28:08 10° NE
Cosmos 1461 3.8 04:18:54 10° SSW 04:23:30 53° ESE 04:28:02 10° NE
Cosmos 1025 Rocket 3.4 04:20:44 10° NNW 04:24:48 43° W 04:28:52 10° SSW
BREEZE-M TANK 2.8 04:25:15 10° W 04:27:30 27° SSW 04:30:43 10° SE
COSMOS 2487 2.5 04:24:57 10° NNW 04:28:34 66° WSW 04:32:09 10° S
ARIANE 5 R/B 3.5 04:24:51 10° N 04:29:14 32° WNW 04:33:37 10° SW
OTV 4 2.0 04:28:38 11° WSW 04:30:40 18° SSW 04:32:49 10° SSE
CZ-2D R/B 2.7 04:26:17 10° N 04:31:26 45° WNW 04:36:36 10° SW
USA 129 2.2 04:29:39 10° S 04:31:41 39° W 04:33:44 10° NNW
Cosmos 1975 4.4 04:29:32 10° SSE 04:33:12 36° E 04:36:52 10° NNE
Cosmos 1452 Rocket 4.5 04:28:32 10° SW 04:33:15 33° WNW 04:38:00 10° N
Cosmos 1844 3.9 04:27:44 10° SW 04:33:19 61° WNW 04:39:02 10° NNE
Thor Agena Rocket 3.7 04:28:15 10° SSE 04:33:27 83° ENE 04:38:37 10° NNW
COSMOS 2406 4.4 04:30:44 10° NW 04:35:11 23° W 04:39:38 10° SSW
Cosmos 1844 Rocket 3.3 04:29:51 10° SW 04:35:14 44° WNW 04:40:41 10° NNE
Cosmos 2263 Rocket 4.4 04:35:16 10° WNW 04:37:32 12° NW 04:39:49 10° NNW
Cosmos 1544 Rocket 3.8 04:33:50 10° SSW 04:38:11 53° W 04:42:31 10° N
Abrixas rocket 3.4 04:35:03 10° W 04:38:14 39° NNW 04:41:25 10° NE
Cosmos 614 Rocket 3.9 04:35:49 10° NNW 04:40:59 71° WSW 04:46:04 10° S
Cosmos 2100 Rocket 4.1 04:35:43 10° S 04:41:56 86° E 04:48:16 10° N
Cosmos 2297 4.3 04:38:47 10° S 04:44:18 59° ESE 04:49:54 10° NNE
Meteor 1-5 Rocket 4.4 04:41:44 10° SSW 04:47:38 75° W 04:53:27 10° N
Cosmos 1459 Rocket 4.1 04:41:40 10° S 04:48:02 89° ESE 04:54:24 10° N
